786  
NZUS93 KARX 240810  
HRRWXR  
 
CURRENT HOURLY OBSERVATIONS ACROSS  
MUCH OF THE UPPER MISSISSIPPI VALLEY  
NATIONAL WEATHER SERVICE LA CROSSE WI  
300 AM CDT TUE APR 24 2018  
 
   
..SOUTHEAST MINNESOTA
 
 
 
CITY SKY/WX TMP DP RH WIND PRES REMARKS  
ROCHESTER FAIR 42 35 76 SE3 30.13F  
ROCHESTER/MAYO FAIR 48 36 62 CALM 30.12F  
WINONA FAIR 39 34 81 CALM 30.11F  
AUSTIN FAIR 41 37 87 CALM 30.12F  
ALBERT LEA FAIR 41 37 87 CALM 30.13F  
DODGE CENTER FAIR 46 36 66 NW3 30.12F  
PRESTON FAIR 47 33 56 CALM 30.13S  
OWATONNA FAIR 39 37 93 CALM 30.13S  
FARIBAULT NOT AVBL  

 
   
..ELSEWHERE IN MINNESOTA
 
 
 
CITY SKY/WX TMP DP RH WIND PRES REMARKS  
MINNEAPOLIS FAIR 49 40 71 CALM 30.13S  
INTNL FALLS FAIR 31 27 85 NE5 30.18S WCI 26  
DULUTH FAIR 47 29 49 N10 30.13S  
RED WING FAIR 39 30 70 CALM 30.11F  
REDWOOD FALLS CLEAR 47 41 80 CALM 30.13F  
MANKATO FAIR 48 41 76 W3 30.14F  
WORTHINGTON CLOUDY 42 38 85 SW3 30.16S  
FAIRMONT CLEAR 42 36 79 NW3 30.15F  

 
   
..SOUTHWEST WISCONSIN
 
 
 
CITY SKY/WX TMP DP RH WIND PRES REMARKS  
LA CROSSE FAIR 46 34 62 CALM 30.12F  
PRAIRIE DU CHI FAIR 40 31 71 CALM 30.11F  
BOSCOBEL FAIR 36 31 82 CALM 30.12F  
LONE ROCK FAIR 34 31 88 CALM 30.11F  
PLATTEVILLE FAIR 43 32 65 NE5 30.10F  
FORT MC COY FAIR 32 29 88 CALM 30.13S  
CAMP DOUGLAS FAIR 33 30 92 CALM 30.11F  
MAUSTON-NEW LI FAIR 35 32 89 CALM 30.11S  
VIROQUA FAIR 48 29 49 CALM 30.11F  
WIS DELLS FAIR 35 29 78 CALM 30.11S  

 
   
..ELSEWHERE IN WISCONSIN
 
 
 
CITY SKY/WX TMP DP RH WIND PRES REMARKS  
MILWAUKEE CLOUDY 49 30 48 NW6 30.07F  
MADISON FAIR 41 34 76 CALM 30.09F  
GREEN BAY FAIR 41 33 73 CALM 30.11S  
EAU CLAIRE FAIR 39 33 79 CALM 30.11F  
BLACK RVR FLS FAIR 29 29 100 CALM 30.12F  
MEDFORD FAIR 34 30 86 CALM 30.12F  
WAUSAU FAIR 35 28 75 CALM 30.10F  
WIS RAPIDS FAIR 36 28 73 CALM 30.12F  
MARSHFIELD FAIR 40 28 62 NW5 30.10F  
RICE LAKE FAIR 35 33 94 CALM 30.15S  

 
   
..NORTHEAST IOWA
 
 
 
CITY SKY/WX TMP DP RH WIND PRES REMARKS  
WATERLOO FAIR 42 36 79 CALM 30.11S  
DUBUQUE FAIR 44 32 62 NE8 30.09F  
DECORAH FAIR 43 34 70 CALM 30.11S  
MASON CITY CLEAR 42 38 85 NW3 30.13F  
CHARLES CITY MOCLDY 45 36 70 CALM 30.12S  
OELWEIN FAIR 46 32 57 NE7 30.11S  

 
   
..ELSEWHERE IN IOWA
 
 
 
CITY SKY/WX TMP DP RH WIND PRES REMARKS  
DES MOINES CLEAR 53 32 44 NE5 30.10F  
IOWA CITY FAIR 50 28 42 NE8 30.09F  
FORT DODGE CLEAR 47 41 80 N5 30.13F  
MARSHALLTOWN CLEAR 41 34 76 N6 30.10S  
CEDAR RAPIDS FAIR 48 29 47 NE9 30.07F  

 
   
..NORTHERN ILLINOIS
 
 
 
CITY SKY/WX TMP DP RH WIND PRES REMARKS  
CHICAGO-OHARE CLOUDY 49 34 56 N3 30.05F  
CHICAGO-MIDWAY DRIZZLE 52 36 54 N5 30.06S  
MOLINE FAIR 53 38 56 E6 30.06S  
ROCKFORD CLOUDY 51 26 37 N7 30.10S  
PEORIA CLOUDY 51 49 92 NE8 30.04S FOG  

 
 
NOTE: "FAIR" INDICATES FEW OR NO CLOUDS BELOW 12,000 FEET WITH NO  
SIGNIFICANT WEATHER AND/OR OBSTRUCTIONS TO VISIBILITY. WIND  
SPEEDS ARE IN MILES-PER-HOUR.  
 
 
CLICK HERE TO GO TO PREVIOUS BULLETINS.

The Nexlab WI Page
The Nexlab IA Page
The Nexlab MN Page Main Text Page